#timestamp,LO_Frequency,Hit,StdDev 
1695567615.5,286047002.8,N
1695567635.3,286047001.5,N
1695567655.2,286047004.0,N
1695567675.0,286047003.8,N
1695567675.9,286047003.8,N
1695567695.8,286047003.5,N
1695567715.6,286047003.9,N
1695567735.4,286047001.7,N
1695567755.3,286047001.3,N
1695567775.1,286047001.6,N
1695567795.9,286047001.4,N
1695567815.7,286047004.3,N
1695567835.5,286047003.8,N
1695567855.4,286047006.0,N
1695567875.2,286047003.6,N
1695567895.0,286047004.2,N
1695567896.0,286047004.2,N
1695567915.8,286047004.2,N
1695567935.6,286047004.4,N
1695567955.5,286047001.4,N
1695567975.3,286047001.7,N
1695567995.1,286047001.7,N
1695568015.9,286047001.6,N
1695568035.7,286047001.3,N
1695568055.6,286047003.7,N
1695568075.4,286047004.1,N
1695568095.2,286047003.6,N
1695568115.1,286047004.4,N
1695568116.0,286047004.4,N
1695568135.8,286047003.1,N
1695568155.7,286047003.0,N
1695568175.5,286047003.7,N
1695568195.3,286047003.7,N
1695568215.2,286047004.3,Y
1695568235.0,286046999.7,P
1695568235.9,286046999.7,N
1695568255.8,286047000.2,N
1695568275.6,286047000.2,N
1695568295.4,286047002.8,N
1695568315.3,286047002.4,N
1695568335.1,286046999.8,N
1695568355.8,286047000.5,N
1695568375.7,286047000.5,N
1695568395.5,286046998.6,N
1695568415.4,286047001.1,N
1695568435.2,286047001.2,N
1695568455.0,286046998.1,N
1695568455.9,286046998.1,N
1695568475.8,286046998.8,N
1695568495.6,286046998.9,N
1695568515.5,286047000.5,N
1695568535.3,286047000.6,N
1695568555.1,286047000.1,N
1695568575.9,286047002.4,N
1695568595.7,286047002.7,N
1695568615.5,286047000.2,N
1695568635.4,286046999.9,N
1695568655.2,286047002.4,N
1695568675.1,286047002.4,N
1695568676.0,286047002.4,N
1695568695.8,286047002.7,N
1695568715.6,286047002.6,N
1695568735.5,286047002.0,N
1695568755.3,286047004.3,N
1695568775.2,286047003.9,N
1695568795.9,286047001.9,N
1695568815.7,286047001.6,N
1695568835.6,286047001.6,N
1695568855.4,286047001.3,N
1695568875.2,286047001.3,N
1695568895.1,286047004.4,N
1695568896.0,286047004.4,N
1695568915.8,286047004.4,N
1695568935.7,286047001.8,N
1695568955.5,286047004.0,N
1695568975.3,286047003.9,N
1695568995.2,286047003.8,N
1695569015.0,286047001.8,N
1695569015.9,286047001.8,N
1695569035.8,286047004.1,N
1695569055.6,286047003.1,N
1695569075.4,286047003.5,N
1695569095.3,286047003.5,N
1695569115.1,286047004.2,Y
1695569135.8,286047002.2,P
1695569155.7,286047002.1,P
1695569175.5,286047001.6,P
1695569195.4,286047002.8,Y
1695569215.2,286047000.4,P
1695569235.0,286047000.4,N
1695569235.9,286047000.4,N
1695569255.8,286047001.0,N
1695569275.6,286047000.9,N
1695569295.5,286047000.6,N
1695569315.3,286047000.7,N
1695569335.1,286046998.1,Y
1695569355.9,286046999.4,P
1695569375.7,286046996.7,P
1695569395.6,286046999.1,N
1695569415.4,286046998.8,N
1695569435.2,286046998.4,N
1695569455.1,286046999.1,N
1695569456.0,286046999.1,N
1695569475.8,286046999.0,N
1695569495.6,286046999.4,N
1695569515.5,286046999.8,N
1695569535.3,286046999.9,N
1695569555.2,286046998.8,N
1695569575.9,286046999.6,N
1695569595.7,286046999.5,N
1695569615.6,286047002.5,N
1695569635.4,286047000.2,N
1695569655.3,286047001.0,N
1695569675.1,286047000.6,N
1695569676.0,286047000.6,N
1695569695.8,286046998.7,N
1695569715.7,286046998.9,N
1695569735.5,286046999.2,N
1695569755.3,286046998.9,N
1695569775.2,286046999.3,N
1695569795.0,286047001.2,N
1695569795.9,286047001.2,N
1695569815.8,286046998.7,N
1695569835.6,286047001.0,N
1695569855.4,286047001.1,N
1695569875.3,286047001.1,N
1695569895.1,286046998.2,N
1695569915.8,286046998.5,N
1695569935.7,286046998.4,N
1695569955.5,286046999.3,N
1695569975.4,286046999.1,N
1695569995.2,286046999.4,N
1695570015.0,286046996.5,Y
1695570015.9,286046996.5,P
1695570035.8,286046997.0,N
1695570055.6,286046999.6,N
1695570075.4,286046996.6,N
1695570095.3,286046999.5,N
1695570115.1,286046996.7,N
1695570135.9,286046999.3,N
1695570155.7,286046998.9,N
1695570175.5,286046998.8,N
1695570195.4,286046999.1,N
1695570215.2,286046999.2,N
1695570235.1,286046996.6,N
1695570236.0,286046996.6,N
1695570255.8,286046999.4,N
1695570275.6,286046998.9,N
1695570295.5,286046998.9,N
1695570315.3,286046998.9,N
1695570335.2,286047000.7,N
1695570355.9,286046999.3,N
1695570375.7,286046999.2,N
1695570395.6,286046998.4,N
1695570415.4,286046999.2,N
1695570435.2,286046999.2,N
1695570455.1,286046999.2,N
1695570456.0,286046999.2,N
1695570475.8,286046999.1,N
1695570495.7,286046999.1,N
1695570515.5,286046998.4,N
1695570535.3,286046998.7,N
1695570555.2,286046998.7,N
1695570575.0,286046998.1,N
1695570575.9,286046998.1,N
1695570595.8,286047001.1,N
1695570615.6,286047001.0,N
1695570635.4,286046999.9,N
1695570655.3,286046999.7,N
1695570675.1,286046999.8,N
1695570695.8,286047000.6,N
1695570715.7,286047000.9,N
1695570735.5,286047000.9,N
1695570755.4,286047000.5,N
1695570775.2,286047000.0,N
1695570795.0,286046998.2,N
1695570795.9,286046998.2,N
1695570815.8,286047001.0,N
1695570835.6,286046998.6,N
1695570855.5,286046998.7,N
1695570875.3,286046998.8,N
1695570895.1,286046998.1,N
1695570915.9,286046998.6,N
1695570935.7,286046998.2,N
1695570955.5,286046998.5,N
1695570975.4,286046998.6,N
1695570995.2,286046998.5,N
1695571015.1,286047000.8,N
1695571016.0,286047000.8,N
1695571035.8,286046998.7,N
1695571055.6,286046999.1,N
1695571075.5,286046998.2,N
1695571095.3,286046998.4,N
1695571115.1,286046998.2,N
1695571135.9,286047001.0,N
1695571155.7,286047001.2,N
1695571175.6,286047001.0,N
1695571195.4,286046998.7,N
